Wind_Speed
33 29 27 25 25 21 17 13 8 12 12 10 11 10 9 9 9 8 6 5 3 2 3 5 5 6 7 7 9 10 9 9 9 9 10 12 13 13 15 15 16 17 18
29 28 25 28 25 20 14 8 8 8 10 13 12 12 10 10 9 6 4 2 0 2 4 6 9 9 10 10 12 12 11 11 11 12 12 15 17 18 18 19 19 20 20
28 27 29 27 18 14 11 11 9 8 10 12 13 13 11 9 9 7 5 4 4 6 9 11 14 15 14 14 14 13 14 16 16 16 16 19 21 21 21 22 22 22 22
31 30 29 21 18 16 14 12 9 10 11 12 13 13 11 11 9 7 6 7 8 11 12 14 16 17 17 17 18 16 14 16 17 18 20 22 23 22 24 24 24 25 26
34 31 24 23 20 16 15 13 9 10 10 10 10 12 13 12 10 8 8 8 11 13 16 17 19 19 20 21 22 20 20 19 20 22 25 26 26 27 28 29 29 30 31
37 32 29 27 21 19 18 14 13 11 11 11 12 13 13 12 9 8 9 12 13 16 17 18 20 22 23 25 25 22 23 22 24 28 28 29 30 30 32 33 33 33 36
36 37 35 29 26 21 20 17 16 15 13 13 13 13 13 12 10 10 11 13 14 17 20 20 19 22 28 25 25 23 23 22 28 31 33 32 31 32 34 37 36 37 38
43 39 33 31 27 28 25 21 19 19 15 18 18 17 17 17 16 16 16 15 17 23 21 23 25 24 26 25 29 26 25 26 31 32 33 35 34 35 38 39 39 40 40
44 43 37 35 30 26 26 22 20 20 19 23 22 23 24 24 22 21 21 21 23 22 23 25 27 28 24 27 31 28 30 33 30 32 34 36 37 39 39 37 38 39 40
48 45 43 44 32 31 33 25 21 22 24 25 27 27 29 29 29 30 27 24 28 22 23 25 23 23 29 30 30 32 30 31 30 34 35 37 40 40 37 35 37 40 41
46 49 40 36 32 35 35 29 27 25 29 32 33 32 32 31 31 34 35 32 28 23 23 29 27 29 30 27 30 31 34 32 35 40 35 34 36 37 39 39 37 38 40
39 39 40 33 27 29 29 31 33 33 32 33 34 34 33 29 23 25 32 32 29 31 33 27 28 27 29 32 31 34 38 36 37 38 37 36 36 38 38 39 33 35 35
32 37 35 33 33 35 35 35 36 36 35 37 36 38 42 33 29 25 25 25 30 29 32 26 27 29 31 36 33 35 40 43 40 39 39 38 37 37 38 38 40 39 37
27 29 33 33 36 36 35 35 36 38 37 39 34 32 24 22 29 29 30 30 35 31 33 36 33 33 34 40 45 40 43 45 44 41 39 37 37 38 39 39 40 42 43
25 28 29 30 31 34 36 36 39 39 39 38 32 29 29 29 27 29 33 31 33 35 36 36 38 37 39 39 39 46 40 44 44 43 39 38 38 38 38 40 42 44 46
23 26 29 30 33 36 37 40 42 40 40 40 36 34 32 30 30 30 33 36 34 36 37 38 36 37 40 39 38 33 40 44 43 40 38 38 38 39 41 42 43 45 47
23 26 29 31 34 37 40 41 42 43 39 40 39 39 36 33 33 35 37 38 39 37 38 42 39 40 43 41 34 38 45 43 39 37 38 39 39 40 41 41 43 45 48
29 28 29 34 36 39 41 47 45 50 38 43 37 42 38 26 34 39 41 38 40 44 45 37 43 48 45 43 39 42 41 39 38 37 38 38 39 40 40 42 44 46 47
35 36 38 39 39 42 46 43 42 36 36 40 43 46 30 36 40 42 39 39 38 45 48 43 42 48 44 42 46 47 41 39 38 38 39 38 38 39 41 44 46 48 50
34 37 38 40 42 48 35 37 36 40 43 36 38 39 36 34 38 36 40 43 45 41 45 42 47 49 47 43 51 47 42 43 40 38 40 40 41 43 42 44 46 50 53
36 34 34 39 39 33 29 30 34 35 39 41 43 39 38 38 39 39 42 41 43 49 45 50 51 49 44 49 50 46 45 45 41 40 47 44 45 44 44 46 48 51 54
43 46 43 36 34 34 35 37 37 38 36 37 37 39 40 41 42 41 44 43 40 46 53 53 47 51 47 51 46 46 46 45 47 53 50 49 44 45 46 48 50 52 53
31 34 37 36 35 32 33 37 35 36 34 36 37 40 42 42 43 39 39 44 49 55 55 48 49 49 51 47 46 46 45 49 55 51 52 51 45 47 49 50 50 52 51
30 31 33 35 37 36 36 37 37 38 38 37 40 45 43 42 38 42 49 51 52 51 50 49 50 52 48 45 46 44 51 59 56 50 48 50 47 48 50 49 48 48 45
31 33 34 35 37 36 36 38 38 40 39 41 44 45 40 40 44 50 53 52 49 50 51 50 51 48 45 45 49 55 57 55 55 49 47 49 48 49 51 49 47 42 39
34 34 35 36 36 37 39 40 41 42 42 44 46 40 42 46 50 51 50 50 52 52 52 51 49 49 49 53 54 56 54 56 51 49 45 48 48 48 52 48 44 37 31
Wind_Direction
183 176 173 168 164 158 166 151 164 182 192 196 181 184 182 176 168 163 155 140 115 72 37 1 341 319 314 324 334 333 317 305 308 311 314 307 301 300 296 296 297 300 299
181 175 173 164 161 165 151 153 236 215 194 204 192 194 195 193 187 183 181 175 18 324 323 338 334 321 315 324 328 322 313 308 305 305 303 299 297 295 296 298 302 302 304
177 183 172 166 160 179 182 204 203 210 206 204 205 202 206 208 211 211 221 253 283 307 316 324 321 319 319 314 319 321 317 312 308 303 304 302 298 297 299 303 303 303 303
184 176 172 176 175 195 193 193 205 217 207 203 206 213 216 220 225 231 244 273 300 303 306 307 310 310 310 314 311 308 309 308 305 303 303 300 295 295 302 305 304 300 298
179 181 189 183 189 199 207 196 208 223 218 215 215 216 219 224 229 242 258 274 280 290 295 298 301 305 308 308 310 302 304 307 308 305 300 301 298 300 302 305 301 300 301
184 189 186 189 196 209 215 216 214 226 232 232 228 226 227 230 236 255 272 282 289 291 293 296 296 297 300 307 303 298 300 303 306 302 302 297 296 299 302 302 301 302 302
188 190 194 197 200 211 213 224 218 235 244 249 246 241 239 240 246 256 269 281 289 282 295 292 293 301 295 296 302 297 297 300 305 303 300 297 296 296 300 301 302 301 301
198 196 198 207 202 210 215 225 233 232 251 257 255 252 248 249 250 252 258 288 273 286 288 289 287 288 283 291 294 285 289 293 305 300 294 294 292 294 298 301 302 301 301
199 202 203 206 206 225 234 226 231 228 260 261 261 261 261 259 261 259 263 269 274 287 286 284 280 297 291 300 294 287 285 293 299 299 291 287 287 292 296 299 297 297 298
205 209 214 219 212 219 224 228 222 244 257 263 264 266 265 267 271 271 264 268 272 283 290 281 281 288 291 284 290 291 286 286 294 296 287 285 291 294 294 294 296 297 300
215 224 234 224 220 219 217 230 243 250 255 262 266 268 268 269 272 275 272 274 278 282 281 280 286 294 299 283 289 290 289 283 297 296 290 284 289 295 297 300 299 297 301
228 234 238 223 217 217 226 235 244 255 266 268 269 268 268 269 273 302 271 270 275 277 289 287 280 303 284 280 292 298 295 283 292 297 292 292 288 292 294 293 285 286 284
229 226 221 219 222 224 227 237 247 257 268 270 263 269 266 258 261 280 285 280 284 286 286 293 289 298 293 287 288 293 291 283 294 298 293 293 292 293 292 292 294 293 287
217 215 218 216 220 225 231 240 250 259 264 268 268 283 279 263 266 267 279 279 287 286 285 294 290 290 286 287 287 282 290 281 294 298 295 294 295 293 293 295 295 294 293
212 216 218 219 223 230 237 245 254 258 262 264 277 265 265 264 269 273 277 282 290 280 292 289 288 292 287 293 286 284 284 284 296 296 294 294 295 296 296 296 297 297 295
217 219 222 226 231 236 243 250 255 259 261 262 262 261 263 268 273 278 281 281 282 281 281 292 286 285 296 295 295 287 282 290 292 292 294 294 294 296 298 298 299 297 297
223 228 232 236 241 246 250 254 257 258 256 260 263 263 262 265 277 279 282 281 282 284 279 298 283 287 301 296 293 281 289 292 290 292 294 295 298 298 299 301 301 300 298
242 240 245 248 248 250 252 258 258 254 260 271 263 257 258 275 267 276 277 273 281 290 293 297 282 290 296 300 291 296 293 290 291 293 294 297 299 299 302 302 301 300 299
245 243 244 249 251 255 258 257 270 267 264 257 267 261 269 265 270 271 270 279 278 284 297 284 295 292 294 291 294 298 292 289 290 293 295 298 298 299 300 298 300 301 300
244 247 249 252 256 255 263 265 256 257 277 260 262 277 275 267 271 271 274 277 289 288 295 283 291 292 294 284 293 293 289 290 291 293 294 295 294 295 297 298 299 301 303
250 252 249 251 255 251 247 255 262 266 264 262 265 271 273 272 275 272 275 282 282 277 282 281 293 293 285 285 294 291 290 290 288 290 295 292 294 296 300 302 304 304 306
250 254 259 258 258 258 251 255 262 265 263 263 265 267 270 273 277 281 279 273 279 286 288 283 285 290 281 288 287 288 288 287 291 295 293 294 299 302 304 305 308 308 309
251 249 252 255 259 261 257 253 255 259 260 263 265 270 274 278 280 282 272 273 275 278 281 286 287 288 281 283 286 285 284 286 288 294 294 299 304 305 306 310 310 312 310
256 253 252 250 251 252 253 254 256 262 263 265 269 273 277 281 280 259 275 278 279 283 285 287 282 281 282 284 283 283 285 287 290 291 297 301 304 306 308 309 313 312 307
254 255 254 252 251 253 254 257 258 260 265 266 268 272 270 263 267 268 276 278 281 281 282 280 277 280 280 282 281 281 285 291 293 296 301 301 304 306 307 311 315 307 302
258 260 260 257 257 257 258 260 261 265 271 270 274 258 259 265 270 272 276 278 279 278 278 276 279 280 279 285 281 285 290 291 295 299 303 302 305 307 307 312 311 305 298
Height
3145 3151 3157 3161 3165 3168 3172 3173 3175 3178 3180 3180 3182 3183 3183 3185 3186 3187 3187 3187 3187 3187 3187 3188 3188 3188 3187 3185 3183 3182 3183 3183 3182 3181 3180 3180 3178 3176 3175 3173 3172 3169 3168
3144 3151 3156 3161 3163 3167 3169 3171 3175 3177 3178 3180 3180 3181 3182 3183 3184 3186 3186 3186 3186 3186 3186 3186 3186 3186 3185 3184 3182 3180 3179 3179 3178 3177 3177 3175 3173 3172 3171 3169 3166 3164 3163
3144 3150 3155 3160 3163 3167 3169 3171 3173 3175 3176 3178 3179 3179 3180 3181 3183 3184 3184 3184 3184 3184 3184 3183 3183 3183 3182 3181 3180 3178 3176 3176 3174 3173 3172 3171 3169 3168 3166 3164 3162 3160 3158
3146 3149 3153 3157 3161 3166 3168 3170 3172 3174 3175 3176 3178 3178 3179 3180 3181 3182 3182 3183 3183 3182 3181 3181 3181 3180 3179 3178 3176 3175 3174 3173 3170 3169 3168 3167 3165 3163 3161 3159 3156 3155 3153
3144 3148 3151 3155 3160 3164 3168 3169 3171 3173 3174 3174 3175 3175 3176 3177 3179 3179 3179 3179 3179 3178 3177 3177 3177 3176 3175 3173 3172 3171 3169 3168 3166 3164 3164 3162 3159 3156 3155 3153 3151 3150 3147
3140 3144 3150 3154 3157 3162 3165 3167 3169 3171 3171 3172 3173 3173 3174 3175 3175 3175 3176 3177 3175 3175 3174 3172 3172 3171 3171 3170 3169 3167 3164 3163 3161 3159 3158 3156 3153 3151 3149 3147 3145 3141 3139
3136 3140 3146 3150 3154 3159 3163 3164 3166 3168 3169 3169 3170 3171 3172 3171 3171 3172 3172 3172 3171 3171 3170 3169 3168 3167 3166 3167 3164 3162 3161 3159 3156 3153 3150 3149 3147 3146 3143 3140 3136 3133 3130
3132 3136 3142 3147 3151 3154 3158 3161 3163 3165 3165 3166 3168 3168 3168 3169 3170 3168 3168 3168 3167 3167 3166 3164 3163 3161 3161 3160 3159 3157 3155 3154 3150 3147 3145 3142 3141 3139 3136 3133 3129 3126 3123
3126 3132 3137 3142 3144 3149 3154 3156 3158 3159 3161 3163 3163 3163 3164 3164 3165 3165 3163 3163 3162 3161 3159 3158 3157 3156 3155 3154 3152 3150 3149 3147 3146 3143 3139 3135 3133 3131 3128 3126 3121 3118 3115
3123 3127 3132 3135 3138 3143 3149 3151 3153 3155 3157 3158 3157 3158 3158 3158 3158 3157 3157 3156 3155 3152 3152 3150 3150 3151 3149 3147 3145 3144 3143 3141 3140 3137 3134 3130 3125 3120 3119 3117 3113 3109 3106
3118 3121 3126 3130 3133 3138 3144 3145 3148 3150 3151 3151 3151 3151 3151 3151 3151 3150 3148 3148 3148 3144 3145 3144 3144 3142 3140 3139 3139 3137 3136 3134 3131 3127 3125 3122 3118 3113 3109 3107 3102 3098 3093
3113 3117 3122 3125 3128 3133 3136 3140 3142 3144 3144 3144 3144 3144 3144 3144 3143 3140 3138 3138 3139 3136 3137 3137 3136 3134 3133 3132 3130 3127 3125 3123 3120 3116 3113 3110 3108 3105 3102 3099 3097 3093 3089
3109 3113 3116 3119 3124 3128 3131 3133 3135 3137 3137 3136 3136 3133 3132 3133 3133 3135 3134 3134 3133 3131 3130 3129 3128 3128 3126 3123 3120 3117 3115 3112 3109 3106 3104 3100 3097 3095 3092 3089 3086 3083 3080
3104 3108 3111 3114 3119 3123 3126 3127 3128 3129 3130 3128 3126 3125 3125 3125 3126 3128 3127 3126 3125 3124 3124 3122 3122 3120 3118 3115 3112 3108 3104 3101 3099 3096 3093 3090 3087 3084 3081 3078 3075 3071 3068
3100 3104 3107 3111 3115 3116 3118 3119 3120 3121 3121 3121 3120 3121 3121 3121 3120 3120 3119 3119 3117 3115 3115 3114 3113 3112 3109 3106 3101 3098 3094 3092 3089 3085 3083 3080 3077 3074 3071 3066 3062 3059 3055
3098 3101 3104 3106 3108 3109 3110 3111 3111 3112 3113 3114 3114 3114 3114 3113 3112 3112 3112 3111 3109 3108 3105 3105 3104 3101 3099 3095 3091 3087 3085 3082 3079 3075 3072 3069 3066 3063 3059 3055 3051 3047 3042
3094 3096 3098 3099 3101 3102 3103 3103 3103 3103 3103 3104 3104 3104 3104 3103 3104 3104 3103 3101 3100 3099 3096 3093 3092 3091 3088 3084 3081 3078 3075 3071 3067 3064 3061 3058 3055 3051 3047 3043 3039 3035 3030
3089 3090 3091 3092 3093 3093 3094 3093 3091 3093 3091 3091 3089 3091 3093 3090 3094 3094 3093 3092 3090 3089 3086 3083 3083 3079 3077 3072 3070 3067 3063 3058 3055 3054 3051 3048 3044 3040 3036 3032 3027 3023 3018
3081 3083 3084 3084 3083 3083 3082 3081 3083 3082 3081 3083 3083 3081 3082 3084 3084 3084 3083 3082 3080 3077 3075 3073 3071 3069 3065 3062 3058 3054 3051 3048 3046 3043 3040 3038 3033 3029 3026 3020 3015 3010 3005
3073 3074 3074 3074 3073 3073 3073 3073 3073 3073 3070 3073 3074 3075 3074 3074 3074 3075 3073 3072 3069 3066 3065 3062 3059 3057 3054 3050 3047 3043 3040 3036 3035 3033 3029 3026 3022 3018 3014 3009 3004 2996 2989
3064 3065 3065 3065 3064 3064 3064 3064 3064 3064 3064 3064 3065 3065 3064 3064 3064 3064 3062 3061 3059 3057 3054 3051 3047 3044 3042 3038 3034 3031 3028 3025 3023 3022 3017 3014 3010 3006 3001 2995 2990 2983 2975
3053 3054 3055 3056 3056 3056 3057 3057 3057 3056 3055 3055 3055 3055 3055 3054 3054 3054 3052 3050 3049 3045 3043 3040 3036 3033 3031 3027 3023 3020 3016 3012 3009 3007 3003 3001 2997 2992 2986 2981 2974 2966 2958
3042 3043 3044 3045 3046 3047 3047 3047 3047 3047 3046 3045 3045 3045 3044 3043 3043 3042 3039 3039 3037 3034 3031 3028 3025 3022 3018 3014 3011 3009 3004 3000 2997 2994 2989 2984 2983 2977 2971 2966 2960 2951 2942
3032 3032 3032 3032 3033 3035 3036 3037 3036 3036 3036 3035 3034 3034 3034 3032 3032 3030 3030 3027 3024 3020 3017 3014 3011 3008 3004 3002 2999 2996 2992 2988 2985 2981 2978 2970 2970 2965 2959 2954 2946 2937 2929
3021 3022 3022 3022 3023 3024 3025 3026 3027 3027 3026 3025 3024 3023 3021 3021 3021 3020 3017 3014 3010 3007 3005 3002 2997 2994 2991 2988 2986 2982 2979 2976 2970 2968 2967 2958 2956 2951 2946 2941 2935 2927 2921
3013 3013 3012 3013 3013 3013 3014 3015 3016 3016 3015 3015 3012 3007 3010 3010 3008 3006 3003 3000 2997 2995 2991 2987 2983 2981 2977 2975 2971 2968 2965 2961 2958 2955 2952 2945 2942 2935 2931 2931 2924 2918 2913